Simultaneous Nadir Overpasses (SNOs) Predictions

Prediction of SNOs between GOES-16 and METOP-C Satellite Orbit:

Table of predicted SNOs for the next 14.0 days since TLE Epoch: 7/27/2024
Index Date Time (GOES-16) GOES-16 Lat,Lon METOP-C Lat,Lon Distance(km) Time Diff (sec)
1 07/28/2024 02:33:35 0.01, -75.20 -0.21, -76.06 98.02 80
2 07/29/2024 02:15:36 0.00, -75.21 0.90, -71.06 471.53 80
3 07/30/2024 14:31:51 -0.00, -75.22 0.07, -75.64 47.16 80
4 08/02/2024 02:32:53 0.00, -75.23 0.01, -75.24 1.50 80
5 08/04/2024 14:31:08 -0.02, -75.27 -0.10, -74.81 51.86 80
6 08/06/2024 02:50:10 0.03, -75.29 -0.90, -79.41 469.82 80
7 08/07/2024 02:26:51 0.03, -75.31 0.22, -74.42 101.20 80
8 08/08/2024 14:45:44 -0.03, -75.34 0.80, -78.98 414.89 80
9 08/09/2024 14:27:46 -0.03, -75.37 -0.33, -73.99 156.61 80
